Location: Brunembert
(50.7122°N, 1.8935°E)
Time: 02:28:36
(UTC+00:00)

Cosmos 1500 Rocket - Pass Details

Date: 31 July 2021
Orbit: 602 x 632 km, 82.5° (Epoch: 18 September)

Event Time Altitude Azimuth Distance (km) Brightness Sun altitude
Exits shadow 21:55:28 29° 161° (SSE) 1,142 4.3 -16.1°
Maximum altitude 21:57:29 57° 95° (E) 742 3.7 -16.3°
Drops below altitude 10° 22:01:52 10° 18° (NNE) 2,017 6.8 -16.6°
Sets 22:04:09 0° 14° (NNE) 2,933 7.8 -16.8°
